Location: Cedar Ridge
(38.0658°N, 120.2769°W)
Time: 22:56:46
(UTC+00:00)

Cosmos 2285 Rocket - Pass Details

Date: 10 September 2024
Orbit: 971 x 997 km, 74.0° (Epoch: 12 October)

Event Time Altitude Azimuth Distance (km) Brightness Sun altitude
Exits shadow 12:46:45 - 210° (SSW) 3,536 6.5 -11.0°
Reaches altitude 10° 12:48:55 10° 214° (SW) 2,748 5.9 -10.5°
Maximum altitude 12:55:09 55° 292° (WNW) 1,176 4.2 -9.4°
Drops below altitude 10° 13:01:24 10° 10° (N) 2,746 6.7 -8.2°
Sets 13:04:01 0° 14° (NNE) 3,694 7.4 -7.7°
